GENESIS 1 (29252 NORAD) Tracking and Keplerian Element Data

This shows tracking and keplerian element data for the satellite.

Feedback or suggestion? Click here.




ElementValue
Catalog29252
NameGENESIS 1
Epoch Orbit96658
Epoch Day12.84968323
Epoch Year2024
RAAN331.1983
Inclination64.5196
Eccentricity0.0005014
Argument of Perigee319.3731
Mean Anonmoly40.7024
Mean Motion15.32345135
Decay Rate0.00018718
L11 29252U 06029A 24012.84968323 .00018718 00000+0 60164-3 0 9993
L22 29252 64.5196 331.1983 0005014 319.3731 40.7024 15.32345135966581



Live tracking and technical data element details for GENESIS 1 (NORAD 29252). GENESIS 1 can be tracked NOW for your location showing map with azimuth and elevation plus other details from your city location.







IsCatalogInMostPopularTable: catalog: 29252, numindb: 510
Update: records affected: 1



GetName: 29252 GENESIS 1

Hit Count: updated at: Fri, 19 Apr 2024 11:33:52 GMT